Flag Weather past 2 weeks in Islamabad, Pakistan

Now
73 °F

Sunny.


Feels Like: 77 °F
Forecast: 51 / 79 °F
Wind: 9 mph from Southwest

Location: Islamabad Airport

Current Time: Nov 26, 2014 at 3:31:02 PM

Latest Report: Nov 26, 2014 at 3:00 PM


Visibility: 2 mi

Pressure: 29.83 "Hg

Humidity: 38%

Dew point: 46 °F

Location of IslamabadLocation

Historic Weather in Islamabad — Graph

°F

Islamabad temperature yesterday

Maximum temperature yesterday: 73 °F (at 3:00 PM)
Minimum temperature yesterday: 45 °F (at 4:00 AM)
Average temperature yesterday: 57 °F

Past Weeks' High & Low Weather Summary

 TemperatureHumidityPressure
High79 °F (Nov 11, 3:00 PM)100% (Nov 15, 12:00 PM)30.15 "Hg (Nov 15, 12:00 PM)
Low43 °F (Nov 24, 6:00 AM)21% (Nov 17, 12:00 PM)29.86 "Hg (Nov 26, 2:00 PM)
Average59 °F61%30.05 "Hg
* Reported Nov 11 2:00 PM — Nov 26 2:00 PM, Islamabad, Weather by CustomWeather, © 2014

Note: Actual official high and low records may vary slightly from our data, if they occured in-between our weather recording intervals... More about our weather records

Advertising

Islamabad weather history for previous 24 hours

 ConditionsComfort  
Time TempWeatherWind HumidityBarometerVisibility
2:00 PM
Nov 26
73 °FSunny.9 mph38%29.86 "Hg1 mi
1:00 PM72 °FSunny.No wind47%29.89 "Hg1 mi
12:00 PM66 °FHaze.5 mph56%29.92 "Hg1 mi
11:00 AM63 °FHaze.No wind59%29.95 "Hg1 mi
10:00 AM59 °FHaze.No wind63%29.98 "Hg1 mi
9:00 AM54 °FHaze.No wind72%29.95 "Hg1 mi
8:00 AM46 °FFog.No wind76%29.95 "Hg1 mi
7:00 AM45 °FFog.No wind87%29.95 "Hg1 mi
6:00 AM45 °FFog.No wind87%29.95 "Hg2 mi
5:00 AM46 °FFog.No wind82%29.92 "Hg2 mi
4:00 AM48 °FFog.No wind82%29.95 "Hg2 mi
3:00 AM48 °FFog.No wind82%29.95 "Hg2 mi
2:00 AM48 °FFog.No wind82%29.98 "Hg2 mi
1:00 AM50 °FFog.No wind76%29.98 "Hg2 mi
12:00 AM50 °FFog.No wind82%30.01 "Hg2 mi
11:00 PM
Nov 25
52 °FClear.No wind77%30.01 "Hg2 mi
10:00 PM54 °FClear.No wind77%30.04 "Hg2 mi
9:00 PM55 °FHaze.No wind72%30.04 "Hg1 mi
8:00 PM57 °FHaze.No wind67%30.04 "Hg1 mi
7:00 PM59 °FClear.No wind68%30.01 "Hg1 mi
6:00 PM64 °FClear.No wind56%30.01 "Hg1 mi
5:00 PM66 °FClear.No wind52%29.98 "Hg2 mi
4:00 PM70 °FSunny.5 mph43%30.01 "Hg2 mi
3:00 PM73 °FSunny.5 mph38%30.01 "Hg2 mi
Weather by CustomWeather, © 2014

See weather overviewHow to use our weather pages